DW6810 Weather Reports


Display with metric or nautical units.
time (UTC)temp
F
wind
direction
speed
MPH
gust
MPH
rain 1hr
in
rain 24hr
in
rain mn
in
humidity
%
barometer
mb
20190219103301 45 68 3.0 6.0 0.00 0.00 0.00 70 1021.3
20190219102805 45 0 3.0 6.0 0.00 0.00 0.00 70 1021.7
20190219102308 45 90 3.0 6.0 0.00 0.00 0.00 70 1022.0
20190219101812 45 113 2.0 7.0 0.00 0.00 0.00 70 1022.3
20190219101315 45 23 3.0 7.0 0.00 0.00 0.00 70 1022.0
20190219100802 45 45 4.0 6.0 0.00 0.00 0.00 70 1022.0
20190219100305 45 0 3.0 7.0 0.00 0.00 0.00 69 1022.0
20190219095810 45 90 5.0 7.0 0.00 0.00 0.00 69 1021.7
20190219095313 45 45 3.0 7.0 0.00 0.00 0.00 69 1022.7
20190219094817 45 315 3.0 7.0 0.00 0.00 0.00 69 1022.3
20190219094303 45 113 3.0 8.0 0.00 0.00 0.00 69 1021.3
20190219093806 45 23 4.0 9.0 0.00 0.00 0.00 69 1021.3
20190219093310 45 45 5.0 9.0 0.00 0.00 0.00 69 1021.3
20190219092814 45 113 5.0 8.0 0.00 0.00 0.00 69 1021.7
20190219092300 45 293 2.0 11.0 0.00 0.00 0.00 69 1022.0
20190219091804 45 293 4.0 11.0 0.00 0.00 0.00 69 1021.7
20190219091308 45 68 8.0 10.0 0.00 0.00 0.00 68 1021.7
20190219090812 45 68 8.0 9.0 0.00 0.00 0.00 68 1022.3
20190219090315 45 68 6.0 8.0 0.00 0.00 0.00 68 1022.0
20190219085801 46 23 7.0 8.0 0.00 0.00 0.00 68 1022.0
20190219085306 46 23 2.0 12.0 0.00 0.00 0.00 66 1022.3
20190219084809 46 113 5.0 12.0 0.00 0.00 0.00 66 1022.0
20190219084313 46 45 4.0 7.0 0.00 0.00 0.00 66 1022.3
20190219083817 46 90 7.0 10.0 0.00 0.00 0.00 66 1022.7
20190219083303 46 90 7.0 10.0 0.00 0.00 0.00 66 1022.7
20190219082806 46 135 4.0 7.0 0.00 0.00 0.00 66 1023.0
20190219082310 46 23 7.0 10.0 0.00 0.00 0.00 66 1023.7
20190219081814 46 315 4.0 10.0 0.00 0.00 0.00 66 1023.4
20190219081318 46 90 6.0 10.0 0.00 0.00 0.00 66 1023.7
20190219080803 46 45 6.0 10.0 0.00 0.00 0.00 66 1023.7
20190219080307 46 68 5.0 9.0 0.00 0.00 0.00 66 1023.4
20190219075811 46 23 5.0 8.0 0.00 0.00 0.00 66 1023.4
20190219075315 46 23 7.0 7.0 0.00 0.00 0.00 66 1023.4
20190219074800 46 23 6.0 8.0 0.00 0.00 0.00 66 1023.7
20190219074305 46 338 8.0 8.0 0.00 0.00 0.00 68 1024.0
20190219073809 46 45 5.0 8.0 0.00 0.00 0.00 68 1023.7
20190219073312 46 23 4.0 8.0 0.00 0.00 0.00 68 1024.0
20190219072816 46 45 4.0 8.0 0.00 0.00 0.00 68 1024.0
20190219072302 46 68 6.0 7.0 0.00 0.00 0.00 68 1023.0
20190219071806 46 23 4.0 8.0 0.00 0.00 0.00 68 1023.7
20190219071310 46 23 4.0 8.0 0.00 0.00 0.00 68 1023.7
20190219070813 46 23 6.0 9.0 0.00 0.00 0.00 68 1023.7
20190219070300 46 338 6.0 9.0 0.00 0.00 0.00 68 1023.4
20190219065803 46 90 7.0 8.0 0.00 0.00 0.00 68 1023.7
20190219065307 46 45 5.0 7.0 0.00 0.00 0.00 68 1023.7
20190219064811 47 90 4.0 9.0 0.00 0.00 0.00 68 1023.7
20190219064315 47 68 6.0 10.0 0.00 0.00 0.00 68 1023.7
20190219063800 47 45 5.0 10.0 0.00 0.00 0.00 69 1023.7
20190219063304 47 23 4.0 7.0 0.00 0.00 0.00 69 1023.7
20190219062808 47 68 6.0 7.0 0.00 0.00 0.00 70 1023.7
20190219062312 46 315 3.0 7.0 0.00 0.00 0.00 70 1024.0
20190219061816 46 45 4.0 6.0 0.00 0.00 0.00 70 1024.0
20190219061302 46 338 5.0 6.0 0.00 0.00 0.00 70 1024.0
20190219060805 46 0 3.0 6.0 0.00 0.00 0.00 69 1024.0
20190219060309 46 338 6.0 6.0 0.00 0.00 0.00 70 1024.0
20190219055813 46 68 4.0 5.0 0.00 0.00 0.00 71 1024.0
20190219055318 46 45 2.0 5.0 0.00 0.00 0.00 73 1024.0
20190219054803 46 45 2.0 5.0 0.00 0.00 0.00 74 1024.0
20190219054307 46 45 2.0 5.0 0.00 0.00 0.00 74 1024.4
20190219053811 46 338 3.0 4.0 0.00 0.00 0.00 74 1024.0
20190219053316 45 0 2.0 5.0 0.00 0.00 0.00 74 1024.0
20190219052800 45 0 4.0 5.0 0.00 0.00 0.00 74 1024.4
20190219052305 45 338 2.0 4.0 0.00 0.00 0.00 75 1024.4
20190219051808 45 338 2.0 4.0 0.00 0.00 0.00 75 1024.0
20190219051312 45 315 3.0 5.0 0.00 0.00 0.00 75 1024.4
20190219050817 45 338 3.0 5.0 0.00 0.00 0.00 75 1024.4
20190219050302 45 315 2.0 5.0 0.00 0.00 0.00 75 1024.4
20190219045806 45 315 3.0 5.0 0.00 0.00 0.00 75 1024.4
20190219045310 45 338 2.0 5.0 0.00 0.00 0.00 75 1024.4
20190219044814 45 23 3.0 4.0 0.00 0.00 0.00 75 1024.4
20190219044300 45 338 4.0 5.0 0.00 0.00 0.00 74 1024.4
20190219043803 45 338 4.0 5.0 0.00 0.00 0.00 74 1024.7
20190219043308 45 338 4.0 5.0 0.00 0.00 0.00 74 1024.7
20190219042811 45 315 3.0 5.0 0.00 0.00 0.00 73 1024.7
20190219042315 46 338 3.0 5.0 0.00 0.00 0.00 73 1024.7
20190219041801 46 338 4.0 4.0 0.00 0.00 0.00 71 1024.7
20190219041305 46 338 4.0 4.0 0.00 0.00 0.00 71 1024.7
20190219040809 46 113 2.0 5.0 0.00 0.00 0.00 70 1024.7
20190219040313 46 315 4.0 5.0 0.00 0.00 0.00 70 1024.7
20190219035817 46 293 2.0 4.0 0.00 0.00 0.00 70 1024.7
20190219035302 47 315 2.0 4.0 0.00 0.00 0.00 69 1024.7
20190219034806 48 293 2.0 5.0 0.00 0.00 0.00 68 1024.7
20190219034310 48 270 2.0 7.0 0.00 0.00 0.00 66 1024.7
20190219033814 48 338 3.0 7.0 0.00 0.00 0.00 65 1024.7
20190219033300 49 338 4.0 5.0 0.00 0.00 0.00 61 1024.4
20190219032803 49 338 3.0 5.0 0.00 0.00 0.00 61 1024.4
20190219032307 50 270 4.0 6.0 0.00 0.00 0.00 60 1024.4
20190219031811 50 68 4.0 6.0 0.00 0.00 0.00 59 1024.7
20190219031315 50 113 4.0 6.0 0.00 0.00 0.00 59 1024.4
20190219030801 50 338 2.0 6.0 0.00 0.00 0.00 59 1024.4
20190219030305 50 23 5.0 6.0 0.00 0.00 0.00 58 1024.4
20190219025808 50 338 2.0 5.0 0.00 0.00 0.00 58 1024.4
20190219025312 50 338 3.0 5.0 0.00 0.00 0.00 56 1024.4
20190219024817 50 0 5.0 5.0 0.00 0.00 0.00 56 1024.4
20190219024302 51 315 3.0 5.0 0.00 0.00 0.00 55 1024.4
20190219023806 51 45 2.0 6.0 0.00 0.00 0.00 55 1024.4
20190219023310 51 338 2.0 6.0 0.00 0.00 0.00 55 1024.0
20190219022814 51 90 3.0 5.0 0.00 0.00 0.00 55 1024.0
20190219022300 51 315 5.0 5.0 0.00 0.00 0.00 55 1024.0
20190219021804 51 113 4.0 5.0 0.00 0.00 0.00 55 1024.0
20190219021308 52 270 3.0 6.0 0.00 0.00 0.00 55 1024.0
20190219020811 52 338 2.0 6.0 0.00 0.00 0.00 55 1024.0
20190219020316 52 23 4.0 6.0 0.00 0.00 0.00 55 1024.0
20190219015801 52 45 4.0 6.0 0.00 0.00 0.00 54 1024.0
20190219015305 52 0 3.0 8.0 0.00 0.00 0.00 53 1024.0
20190219014809 52 113 3.0 8.0 0.00 0.00 0.00 53 1023.7
20190219014313 53 23 3.0 7.0 0.00 0.00 0.00 53 1023.7
20190219013817 53 315 4.0 7.0 0.00 0.00 0.00 53 1023.7
20190219013303 53 338 5.0 9.0 0.00 0.00 0.00 53 1023.7
20190219012805 53 45 2.0 9.0 0.00 0.00 0.00 53 1023.7
20190219012310 54 45 4.0 8.0 0.00 0.00 0.00 54 1023.7
20190219011814 54 45 2.0 8.0 0.00 0.00 0.00 54 1023.4
20190219011259 54 45 2.0 5.0 0.00 0.00 0.00 55 1023.4
20190219010804 54 315 2.0 5.0 0.00 0.00 0.00 55 1023.4
20190219010307 54 45 1.0 5.0 0.00 0.00 0.00 54 1023.4
20190219005811 54 90 4.0 6.0 0.00 0.00 0.00 54 1023.4
20190219005315 54 225 2.0 6.0 0.00 0.00 0.00 53 1023.0
20190219004800 54 45 2.0 5.0 0.00 0.00 0.00 53 1023.0
20190219004304 55 113 3.0 5.0 0.00 0.00 0.00 51 1023.0
20190219003808 55 23 4.0 6.0 0.00 0.00 0.00 50 1023.0
20190219003312 55 338 4.0 8.0 0.00 0.00 0.00 50 1023.0
20190219002816 56 90 3.0 8.0 0.00 0.00 0.00 50 1023.0
20190219002302 56 135 8.0 8.0 0.00 0.00 0.00 50 1022.7
20190219001806 56 23 1.0 5.0 0.00 0.00 0.00 49 1023.0
20190219001310 57 113 2.0 6.0 0.00 0.00 0.00 46 1023.0
20190219000814 57 68 2.0 6.0 0.00 0.00 0.00 45 1023.0
20190219000317 57 113 4.0 5.0 0.00 0.00 0.00 44 1023.0
20190218235802 58 90 4.0 7.0 0.00 0.00 0.00 43 1023.0
20190218235307 58 0 3.0 7.0 0.00 0.00 0.00 40 1023.0
20190218234810 58 45 6.0 7.0 0.00 0.00 0.00 40 1023.0
20190218234315 58 338 6.0 7.0 0.00 0.00 0.00 40 1022.7
20190218233759 59 45 3.0 12.0 0.00 0.00 0.00 39 1023.0
20190218233303 59 113 6.0 12.0 0.00 0.00 0.00 37 1022.7
20190218232808 59 45 5.0 6.0 0.00 0.00 0.00 37 1022.7
20190218232312 59 338 5.0 6.0 0.00 0.00 0.00 39 1022.7
20190218231816 59 68 6.0 8.0 0.00 0.00 0.00 40 1023.0
20190218231301 59 113 4.0 9.0 0.00 0.00 0.00 40 1023.0
20190218230805 60 270 7.0 9.0 0.00 0.00 0.00 37 1023.0
20190218230309 60 90 3.0 8.0 0.00 0.00 0.00 37 1022.7
20190218225813 60 0 5.0 10.0 0.00 0.00 0.00 37 1022.7
20190218225317 60 45 6.0 10.0 0.00 0.00 0.00 37 1022.7
20190218224802 61 45 7.0 10.0 0.00 0.00 0.00 37 1022.7
20190218224307 60 90 6.0 11.0 0.00 0.00 0.00 37 1022.7
20190218223811 62 45 4.0 11.0 0.00 0.00 0.00 35 1022.7
20190218223314 62 68 7.0 10.0 0.00 0.00 0.00 35 1022.7
20190218222800 61 135 3.0 14.0 0.00 0.00 0.00 37 1022.7
20190218222304 60 23 7.0 14.0 0.00 0.00 0.00 37 1022.7
20190218221808 61 90 8.0 10.0 0.00 0.00 0.00 37 1022.7
20190218221312 62 113 6.0 9.0 0.00 0.00 0.00 37 1023.0
20190218220816 61 68 5.0 10.0 0.00 0.00 0.00 37 1022.7
20190218220301 62 45 7.0 10.0 0.00 0.00 0.00 35 1022.7
20190218215804 60 113 6.0 12.0 0.00 0.00 0.00 37 1022.7
20190218215309 62 90 6.0 12.0 0.00 0.00 0.00 37 1022.7
20190218214813 61 45 6.0 8.0 0.00 0.00 0.00 39 1023.0
20190218214317 62 270 7.0 8.0 0.00 0.00 0.00 37 1022.7
20190218213803 62 23 4.0 9.0 0.00 0.00 0.00 37 1022.7
20190218213306 62 0 5.0 9.0 0.00 0.00 0.00 37 1023.0
20190218212810 62 113 7.0 8.0 0.00 0.00 0.00 37 1023.0
20190218212314 61 0 8.0 8.0 0.00 0.00 0.00 37 1023.0
20190218211759 62 225 7.0 10.0 0.00 0.00 0.00 39 1023.0
20190218211304 62 113 7.0 12.0 0.00 0.00 0.00 37 1023.0
20190218210807 63 338 7.0 12.0 0.00 0.00 0.00 37 1023.0
20190218210312 62 23 7.0 11.0 0.00 0.00 0.00 37 1023.0
20190218205816 63 90 6.0 11.0 0.00 0.00 0.00 37 1023.0
20190218205300 62 23 4.0 11.0 0.00 0.00 0.00 37 1023.0
20190218204805 62 23 6.0 8.0 0.00 0.00 0.00 37 1023.0
20190218204309 63 315 5.0 9.0 0.00 0.00 0.00 40 1023.0
20190218203813 62 90 5.0 10.0 0.00 0.00 0.00 37 1023.0
20190218203317 62 23 2.0 10.0 0.00 0.00 0.00 37 1023.4
20190218202802 63 45 5.0 9.0 0.00 0.00 0.00 37 1023.4
20190218202307 63 113 5.0 10.0 0.00 0.00 0.00 37 1023.4
20190218201810 62 113 4.0 10.0 0.00 0.00 0.00 37 1023.7
20190218201314 63 45 10.0 10.0 0.00 0.00 0.00 37 1023.7
20190218200800 63 45 4.0 10.0 0.00 0.00 0.00 37 1023.7
20190218200304 62 113 6.0 10.0 0.00 0.00 0.00 37 1023.7
20190218195807 62 315 7.0 10.0 0.00 0.00 0.00 37 1023.7
20190218195311 62 45 5.0 11.0 0.00 0.00 0.00 37 1023.7
20190218194816 62 315 7.0 11.0 0.00 0.00 0.00 37 1023.7
20190218194301 63 23 5.0 8.0 0.00 0.00 0.00 37 1023.7
20190218193804 62 23 7.0 8.0 0.00 0.00 0.00 37 1024.0
20190218193308 62 113 4.0 10.0 0.00 0.00 0.00 37 1024.0
20190218192812 62 45 6.0 11.0 0.00 0.00 0.00 37 1024.0
20190218192259 62 90 6.0 11.0 0.00 0.00 0.00 35 1024.0
20190218191802 61 338 8.0 10.0 0.00 0.00 0.00 39 1024.4
20190218191306 62 45 10.0 12.0 0.00 0.00 0.00 39 1024.4
20190218190810 61 68 7.0 12.0 0.00 0.00 0.00 37 1024.4
20190218190314 61 113 6.0 10.0 0.00 0.00 0.00 39 1024.4
20190218185759 60 90 4.0 9.0 0.00 0.00 0.00 40 1024.4
20190218185303 61 90 5.0 9.0 0.00 0.00 0.00 40 1024.7
20190218184807 61 23 6.0 8.0 0.00 0.00 0.00 39 1024.7
20190218184310 60 338 6.0 7.0 0.00 0.00 0.00 40 1025.1
20190218183814 59 0 7.0 8.0 0.00 0.00 0.00 40 1025.1
20190218183300 59 23 5.0 8.0 0.00 0.00 0.00 40 1025.1
20190218182822 59 45 8.0 9.0 0.00 0.00 0.00 41 1025.4
20190218182308 58 90 2.0 9.0 0.00 0.00 0.00 40 1025.4
20190218181812 59 293 3.0 11.0 0.00 0.00 0.00 40 1025.4
20190218181316 60 113 4.0 11.0 0.00 0.00 0.00 40 1025.4
20190218180801 60 23 8.0 10.0 0.00 0.00 0.00 40 1025.7
20190218180305 59 113 8.0 11.0 0.00 0.00 0.00 40 1025.7
20190218175810 59 45 6.0 11.0 0.00 0.00 0.00 39 1025.7
20190218175313 59 90 7.0 9.0 0.00 0.00 0.00 40 1025.7
20190218174759 60 45 6.0 9.0 0.00 0.00 0.00 40 1026.1
20190218174302 59 113 7.0 12.0 0.00 0.00 0.00 41 1026.1
20190218173806 58 68 5.0 12.0 0.00 0.00 0.00 40 1026.1
20190218173312 59 113 6.0 9.0 0.00 0.00 0.00 40 1026.1
20190218172814 58 113 6.0 9.0 0.00 0.00 0.00 43 1026.1
20190218172300 58 23 4.0 9.0 0.00 0.00 0.00 41 1026.1
20190218171804 57 113 6.0 9.0 0.00 0.00 0.00 43 1026.1
20190218171308 58 158 9.0 12.0 0.00 0.00 0.00 45 1026.1
20190218170812 57 113 8.0 12.0 0.00 0.00 0.00 44 1026.1
20190218170335 57 90 5.0 9.0 0.00 0.00 0.00 44 1026.1
20190218165801 57 23 6.0 8.0 0.00 0.00 0.00 45 1026.1
20190218165305 57 113 6.0 11.0 0.00 0.00 0.00 45 1026.1
20190218164809 57 113 7.0 14.0 0.00 0.00 0.00 45 1026.1
20190218164313 56 68 5.0 14.0 0.00 0.00 0.00 45 1026.1
20190218163817 56 338 6.0 10.0 0.00 0.00 0.00 45 1026.4
20190218163302 55 113 9.0 12.0 0.00 0.00 0.00 46 1026.1
20190218162806 54 68 7.0 12.0 0.00 0.00 0.00 49 1026.1
20190218162310 54 23 6.0 10.0 0.00 0.00 0.00 50 1026.1
20190218161814 54 113 7.0 10.0 0.00 0.00 0.00 49 1025.7
20190218161259 53 90 9.0 10.0 0.00 0.00 0.00 50 1026.1
20190218160803 53 113 7.0 9.0 0.00 0.00 0.00 51 1026.1
20190218160308 53 0 6.0 8.0 0.00 0.00 0.00 53 1026.1
20190218155812 52 68 8.0 8.0 0.00 0.00 0.00 55 1026.1
20190218155315 52 23 4.0 12.0 0.00 0.00 0.00 55 1026.1
20190218154800 51 23 6.0 12.0 0.00 0.00 0.00 55 1026.1
20190218154304 52 338 4.0 11.0 0.00 0.00 0.00 55 1026.1
20190218153808 51 90 8.0 11.0 0.00 0.00 0.00 56 1026.1
20190218153312 50 90 6.0 9.0 0.00 0.00 0.00 58 1026.1
20190218152816 50 90 6.0 8.0 0.00 0.00 0.00 59 1026.1
20190218152302 48 90 7.0 7.0 0.00 0.00 0.00 61 1026.1
20190218151805 48 0 4.0 8.0 0.00 0.00 0.00 63 1025.7
20190218151309 47 45 5.0 9.0 0.00 0.00 0.00 63 1025.7
20190218150813 46 113 4.0 10.0 0.00 0.00 0.00 65 1026.1
20190218150259 47 68 4.0 10.0 0.00 0.00 0.00 63 1025.7
20190218145804 46 68 4.0 7.0 0.00 0.00 0.00 65 1025.7
20190218145306 46 315 6.0 7.0 0.00 0.00 0.00 65 1025.7
20190218144810 46 315 3.0 7.0 0.00 0.00 0.00 66 1025.4
20190218144314 46 90 4.0 7.0 0.00 0.00 0.00 66 1025.4
20190218143800 46 90 6.0 8.0 0.00 0.00 0.00 66 1025.4
20190218143304 46 0 8.0 8.0 0.00 0.00 0.00 66 1025.4
20190218142808 46 293 3.0 8.0 0.00 0.00 0.00 66 1025.1
20190218142312 46 90 6.0 6.0 0.00 0.00 0.00 66 1025.1
20190218141815 45 113 4.0 8.0 0.00 0.00 0.00 66 1025.1
20190218141301 45 113 5.0 8.0 0.00 0.00 0.00 66 1024.7
20190218140805 45 113 4.0 8.0 0.00 0.00 0.00 68 1024.7
20190218140309 45 338 6.0 6.0 0.00 0.00 0.00 68 1024.7
20190218135812 44 23 4.0 7.0 0.00 0.00 0.00 69 1024.7
20190218135317 44 90 3.0 7.0 0.00 0.00 0.00 70 1024.7
20190218134802 44 338 3.0 6.0 0.00 0.00 0.00 70 1024.4
20190218134306 44 90 4.0 6.0 0.00 0.00 0.00 70 1024.4
20190218133810 43 23 3.0 6.0 0.00 0.00 0.00 70 1024.4
20190218133314 43 45 2.0 5.0 0.00 0.00 0.00 70 1024.0
20190218132759 43 113 1.0 6.0 0.00 0.00 0.00 70 1024.0
20190218132304 43 158 3.0 6.0 0.00 0.00 0.00 70 1023.7
20190218131808 43 338 3.0 6.0 0.00 0.00 0.00 70 1023.7
20190218131311 43 180 4.0 6.0 0.00 0.00 0.00 70 1023.7
20190218130815 43 45 5.0 7.0 0.00 0.00 0.00 70 1023.7
20190218130301 43 113 1.0 7.0 0.00 0.00 0.00 70 1023.7
20190218125804 43 0 4.0 6.0 0.00 0.00 0.00 69 1023.7
20190218125309 43 23 5.0 6.0 0.00 0.00 0.00 69 1023.7
20190218124813 43 0 3.0 6.0 0.00 0.00 0.00 69 1023.7
20190218124258 43 23 3.0 6.0 0.00 0.00 0.00 69 1023.7
20190218123801 43 45 5.0 6.0 0.00 0.00 0.00 69 1023.4
20190218123306 43 68 6.0 6.0 0.00 0.00 0.00 68 1023.4
20190218122810 43 338 3.0 6.0 0.00 0.00 0.00 68 1023.4
20190218122314 43 23 3.0 6.0 0.00 0.00 0.00 68 1023.4
20190218121759 43 315 6.0 6.0 0.00 0.00 0.00 68 1023.0
20190218121303 44 338 5.0 8.0 0.00 0.00 0.00 68 1023.0
20190218120807 44 23 2.0 8.0 0.00 0.00 0.00 68 1023.0
20190218120311 44 23 6.0 8.0 0.00 0.00 0.00 66 1023.0
20190218115815 44 0 1.0 8.0 0.00 0.00 0.00 66 1022.7
20190218115301 44 338 4.0 6.0 0.00 0.00 0.00 66 1022.7
20190218114804 44 23 3.0 7.0 0.00 0.00 0.00 66 1022.3
20190218114308 44 68 4.0 8.0 0.00 0.00 0.00 66 1022.3
20190218113813 44 338 4.0 8.0 0.00 0.00 0.00 66 1022.3
20190218113316 44 23 5.0 10.0 0.00 0.00 0.00 66 1022.3
20190218112801 44 68 2.0 10.0 0.00 0.00 0.00 66 1022.7
20190218112305 44 45 5.0 9.0 0.00 0.00 0.00 66 1022.3
20190218111809 44 23 4.0 9.0 0.00 0.00 0.00 66 1022.0
20190218111313 44 270 4.0 7.0 0.00 0.00 0.00 66 1022.3
20190218110759 44 45 4.0 7.0 0.00 0.00 0.00 66 1022.3
20190218110302 44 90 4.0 7.0 0.00 0.00 0.00 65 1022.3
20190218105807 44 45 3.0 8.0 0.00 0.00 0.00 65 1022.3
20190218105310 44 338 3.0 8.0 0.00 0.00 0.00 65 1022.3
20190218104815 44 68 7.0 7.0 0.00 0.00 0.00 65 1022.3
20190218104300 44 113 6.0 6.0 0.00 0.00 0.00 65 1022.3
20190218103804 44 293 3.0 7.0 0.00 0.00 0.00 65 1022.3